{"data":{"norad_id":62880,"intl_designator":"2025-024B","name":"STARLINK-11352 [DTC]","alt_names":[],"object_type":"PAYLOAD","status":"ACTIVE","operator":null,"country":"US","launch_date":"2025-02-04","launch_site_code":"AFETR","launch_vehicle":null,"mission":null,"orbit_class":"UNKNOWN","rcs_meters":null,"size_class":null,"mass_kg":null,"dimensions":null,"purposes":["comms"],"wikipedia_slug":null,"has_3d_model":false,"image_url":null,"decayed_at":null,"tle_current":{"epoch":"2026-05-25T03:29:04.259616Z","epoch_age_seconds":62163,"freshness":"FRESH","line1":"1 62880U 25024B   26145.14518819  .00271153  00000+0  20274-2 0  9997","line2":"2 62880  43.0009  80.3784 0002509 281.5012  78.5574 15.71085325 75495","mean_motion":15.71085325,"eccentricity":0.0002509,"inclination_deg":43.0009,"raan_deg":80.3784,"arg_perigee_deg":281.5012,"mean_anomaly_deg":78.5574,"bstar":0.0020274,"rev_number":7549,"period_min":91.65638409868,"perigee_km":354.10442476858,"apogee_km":357.48351132835,"semimajor_km":6733.9309680485,"source":"CELESTRAK","updated_at":"2026-05-25T13:38:19.788292Z"}}}